STARLINK-36109 (66943 NORAD) Tracking and Keplerian Element Data

This shows tracking and keplerian element data for the satellite.

Feedback or suggestion? Click here.




ElementValue
Catalog66943
NameSTARLINK-36109
Epoch Orbit313
Epoch Day354.25003472
Epoch Year2025
RAAN12.652
Inclination53.1556
Eccentricity8.86E-05
Argument of Perigee79.8343
Mean Anonmoly188.4157
Mean Motion15.77316607
Decay Rate-0.01524252
L11 66943U 25286U 25354.25003472 -.01524252 00000+0 -10327-1 0 9999
L22 66943 53.1556 12.6520 0000886 79.8343 188.4157 15.77316607 3131



Live tracking and technical data element details for STARLINK-36109 (NORAD 66943). STARLINK-36109 can be tracked NOW for your location showing map with azimuth and elevation plus other details from your city location.







IsCatalogInMostPopularTable: catalog: 66943, numindb: 15
Update: records affected: 1



GetName: 66943 STARLINK-36109

Hit Count: updated at: Wed, 15 Apr 2026 01:25:17 GMT